DW3485 Glendale RI US current weather conditions

sailwx.info

Wind from 202 at 0 knots gusting 2

Air temperature 20.6° C
Dewpoint 19.7° C

Last reported at 2020-Aug-09 07:00 UTC.
Time now 2020-Aug-09 07:43 UTC

Location: N 41°59' W 071°40'.
View on Google Maps.

See reports from other nearby stations

  
Tides and Currents Weather Stations Pressure Air Temp Water Temp Dewpoint Dewpoint Depression Visibility Wind Speed Wind Dir Waves Ship Positions
date/time (UTC)wind fromknots sea level pressurealtimeterstation pressurevisibilityair tempwater tempwave heightnotes
2020-Aug-09 07:00 202 0 gusting 2 20.6
2020-Aug-09 06:45 216 1 gusting 2 20.6
2020-Aug-09 06:30 192 1 gusting 2 20.6
2020-Aug-09 06:15 209 1 gusting 2 20.6
2020-Aug-09 06:00 213 1 gusting 2 20.6
2020-Aug-09 05:45 203 20.0
2020-Aug-09 05:30 203 20.0
2020-Aug-09 05:15 203 20.0
2020-Aug-09 05:00 203 20.0
2020-Aug-09 04:45 20.0
2020-Aug-09 04:30 203 20.0
2020-Aug-09 04:15 203 0 gusting 2 20.6
2020-Aug-09 04:00 202 1 gusting 3 20.6
2020-Aug-09 03:45 220 0 gusting 2 21.1
2020-Aug-09 03:30 208 0 gusting 2 21.1
2020-Aug-09 03:15 194 0 gusting 2 21.1
2020-Aug-09 03:00 194 21.1
2020-Aug-09 02:45 194 21.7
2020-Aug-09 02:30 21.7
2020-Aug-09 02:15 194 0 gusting 2 22.2
2020-Aug-09 02:00 194 22.2
2020-Aug-09 01:45 199 0 gusting 2 22.8
2020-Aug-09 01:30 210 0 gusting 2 22.8
2020-Aug-09 01:15 210 0 gusting 1 23.3
2020-Aug-09 01:00 210 23.9
2020-Aug-09 00:45 210 23.9
2020-Aug-09 00:30 24.4
2020-Aug-09 00:15 25.0
2020-Aug-09 00:00 210 25.6
2020-Aug-08 23:45 210 0 gusting 2 26.1
2020-Aug-08 23:30 221 0 gusting 2 27.2
2020-Aug-08 23:15 196 0 gusting 2 28.3
2020-Aug-08 23:00 186 0 gusting 4 28.9
2020-Aug-08 22:45 276 0 gusting 1 29.4
2020-Aug-08 22:30 301 30.0
2020-Aug-08 22:15 301 30.0
2020-Aug-08 22:00 313 0 gusting 1 30.0
2020-Aug-08 21:45 103 0 gusting 1 30.0
2020-Aug-08 21:30 035 0 gusting 2 29.4
2020-Aug-08 21:15 320 0 gusting 1 28.9
2020-Aug-08 21:00 320 1 gusting 2 28.3
2020-Aug-08 20:45 353 0 gusting 2 28.3
2020-Aug-08 20:30 003 1 gusting 3 28.3
2020-Aug-08 20:15 334 2 gusting 5 28.3
2020-Aug-08 20:00 234 1 gusting 5 28.9
2020-Aug-08 19:45 218 0 gusting 2 28.9
2020-Aug-08 19:30 081 0 gusting 2 28.3
2020-Aug-08 19:15 341 1 gusting 4 27.8
2020-Aug-08 19:00 286 0 gusting 2 27.8
2020-Aug-08 18:45 325 0 gusting 2 27.8
2020-Aug-08 18:30 333 0 gusting 2 27.2
2020-Aug-08 18:15 342 1 gusting 4 27.2
2020-Aug-08 18:00 330 1 gusting 4 26.7
2020-Aug-08 17:45 007 0 gusting 1 27.2
2020-Aug-08 17:30 321 0 gusting 3 26.7
2020-Aug-08 17:15 239 0 gusting 2 26.7
2020-Aug-08 17:00 353 1 gusting 3 26.1
2020-Aug-08 16:45 318 0 gusting 3 25.6
2020-Aug-08 16:30 350 1 gusting 4 25.6
2020-Aug-08 16:15 042 1 gusting 3 25.6
2020-Aug-08 16:00 302 0 gusting 5 25.6
2020-Aug-08 15:45 348 0 gusting 3 25.0
2020-Aug-08 15:30 353 1 gusting 3 24.4
2020-Aug-08 15:15 357 0 gusting 2 23.9
2020-Aug-08 15:00 020 1 gusting 3 23.3
2020-Aug-08 14:45 013 0 gusting 2 23.3
2020-Aug-08 14:30 032 0 gusting 4 22.8
2020-Aug-08 14:15 011 1 gusting 4 22.2
2020-Aug-08 14:00 008 1 gusting 4 22.2
2020-Aug-08 13:45 009 1 gusting 4 21.7
2020-Aug-08 13:30 003 0 gusting 3 21.7
2020-Aug-08 13:15 353 0 gusting 2 21.1
2020-Aug-08 13:00 321 20.6
2020-Aug-08 12:45 315 20.0
2020-Aug-08 12:30 20.0
2020-Aug-08 12:15 19.4
2020-Aug-08 12:00 19.4
2020-Aug-08 11:45 310 19.4
2020-Aug-08 11:30 18.9
2020-Aug-08 11:15 18.9
2020-Aug-08 11:00 310 18.9
2020-Aug-08 10:45 18.3
2020-Aug-08 10:30 310 18.3
2020-Aug-08 10:15 310 0 gusting 2 18.3
2020-Aug-08 10:00 306 18.3
2020-Aug-08 09:45 18.3
2020-Aug-08 09:30 307 18.3
2020-Aug-08 09:15 18.3
2020-Aug-08 09:00 18.3
2020-Aug-08 08:45 18.3
2020-Aug-08 08:30 18.3
2020-Aug-08 08:15 18.9
2020-Aug-08 08:00 18.9
2020-Aug-08 07:45 307 18.9
2020-Aug-08 07:30 307 18.9
2020-Aug-08 07:15 307 18.9
2020-Aug-08 07:00 303 18.9
2020-Aug-08 06:45 18.9
2020-Aug-08 06:30 18.9
2020-Aug-08 06:15 301 18.9
2020-Aug-08 06:00 18.9
2020-Aug-08 05:45 299 0 gusting 2 18.9
2020-Aug-08 05:30 18.9
2020-Aug-08 05:15 18.9
2020-Aug-08 05:00 288 18.9
2020-Aug-08 04:45 18.9
2020-Aug-08 04:30 18.9
2020-Aug-08 04:15 18.9
2020-Aug-08 04:00 288 18.9
2020-Aug-08 03:45 18.9
2020-Aug-08 03:30 18.9
2020-Aug-08 03:15 19.4
2020-Aug-08 03:00 19.4
2020-Aug-08 02:45 20.0
2020-Aug-08 02:30 20.0
2020-Aug-08 02:15 20.6
2020-Aug-08 02:00 20.6
2020-Aug-08 01:45 21.1
2020-Aug-08 01:30 21.7
2020-Aug-08 01:15 288 22.2
2020-Aug-08 01:00 22.2
2020-Aug-08 00:45 22.8
2020-Aug-08 00:30 22.8
2020-Aug-08 00:15 23.3
2020-Aug-08 00:00 23.3
2020-Aug-07 23:45 23.9
2020-Aug-07 23:30 25.0
2020-Aug-07 23:15 285 25.6
2020-Aug-07 23:00 041 0 gusting 2 26.7
2020-Aug-07 22:45 359 0 gusting 1 26.7
2020-Aug-07 22:30 342 0 gusting 4 26.7
2020-Aug-07 22:15 359 1 gusting 5 26.7
2020-Aug-07 22:00 357 0 gusting 2 26.1
2020-Aug-07 21:45 196 26.7
2020-Aug-07 21:30 196 26.1
2020-Aug-07 21:15 197 26.7
2020-Aug-07 21:00 228 0 gusting 2 27.2
2020-Aug-07 20:45 260 0 gusting 2 27.2
2020-Aug-07 20:30 310 0 gusting 2 26.7
2020-Aug-07 20:15 332 0 gusting 3 27.2
2020-Aug-07 20:00 332 0 gusting 3 26.7
2020-Aug-07 19:45 305 0 gusting 2 26.7
2020-Aug-07 19:30 321 0 gusting 2 26.1
2020-Aug-07 19:15 332 1 gusting 4 25.6
2020-Aug-07 19:00 335 0 gusting 3 25.0
2020-Aug-07 18:45 330 0 gusting 2 25.0
2020-Aug-07 18:30 332 25.0
2020-Aug-07 18:15 337 0 gusting 3 25.0
2020-Aug-07 18:00 339 0 gusting 1 25.0
2020-Aug-07 17:45 336 0 gusting 2 25.0
2020-Aug-07 17:30 356 0 gusting 1 25.0
2020-Aug-07 17:15 342 0 gusting 3 25.0
2020-Aug-07 17:00 020 0 gusting 2 24.4
2020-Aug-07 16:45 013 1 gusting 2 24.4
2020-Aug-07 16:30 357 1 gusting 4 23.9
2020-Aug-07 16:15 010 0 gusting 2 23.9
2020-Aug-07 16:00 017 0 gusting 2 23.3
2020-Aug-07 15:45 340 3 gusting 6 23.3
2020-Aug-07 15:30 356 1 gusting 4 22.8
2020-Aug-07 15:15 350 1 gusting 3 22.2
2020-Aug-07 15:00 005 0 gusting 2 22.2
2020-Aug-07 14:45 020 22.2
2020-Aug-07 14:30 006 21.7
2020-Aug-07 14:15 001 0 gusting 2 21.1
2020-Aug-07 14:00 355 1 gusting 2 21.1
2020-Aug-07 13:45 355 21.1
2020-Aug-07 13:30 20.6
2020-Aug-07 13:15 20.6
2020-Aug-07 13:00 20.6
2020-Aug-07 12:45 20.6
2020-Aug-07 12:30 20.0
2020-Aug-07 12:15 19.4
2020-Aug-07 12:00 19.4
2020-Aug-07 11:45 19.4
2020-Aug-07 11:30 18.9
2020-Aug-07 11:15 18.9
2020-Aug-07 11:00 18.3
2020-Aug-07 10:45 18.3
2020-Aug-07 10:30 18.3
2020-Aug-07 10:15 18.3
2020-Aug-07 10:00 18.3
2020-Aug-07 09:45 18.3
2020-Aug-07 09:30 18.3
2020-Aug-07 09:15 18.3
2020-Aug-07 09:00 17.8
2020-Aug-07 08:45 18.3
2020-Aug-07 08:30 18.3
2020-Aug-07 08:15 18.3
2020-Aug-07 08:00 18.3
2020-Aug-07 07:45 18.3
2020-Aug-07 07:30 18.3
2020-Aug-07 07:15 18.3
2020-Aug-07 07:00 18.3